"2009-01-15 00:00:00",541798,5.319,119.1,5.056,0.938,3.55,99.52445,-1.912,-0.692,81.5,0,109.5,13.58,-1.17,81.1
"2009-01-15 00:00:30",541799,5.352,122.1,3.615,0.9,3.641,99.52445,-1.912,-0.698,81.6,0,109.5,13.58,-1.17,84.1
"2009-01-15 00:01:00",541800,4.931,116.9,5.062,1.07,2.765,99.52445,-1.912,-0.764,81.6,0,109.5,13.58,-1.17,78.9
"2009-01-15 00:01:30",541801,4.861,112.7,5.534,1.053,2.462,99.5239,-1.913,-0.801,81.6,0,109.5,13.59,-1.17,74.7
"2009-01-15 00:02:00",541802,3.322,106.6,4.471,0.601,-0.68,99.51341,-1.94,-0.995,81.5,0,109.5,13.59,-1.19,68.6
"2009-01-15 00:02:30",541803,4.713,116.3,5.89,1.18,2.665,99.5052,-1.961,-0.784,81.8,0,109.5,13.59,-1.22,78.3
"2009-01-15 00:03:00",541804,4.741,115.1,6.467,1.114,2.923,99.50378,-1.964,-0.777,81.8,0,109.5,13.59,-1.22,77.1
"2009-01-15 00:03:30",541805,4.757,117.2,5.794,1.078,2.749,99.50124,-1.971,-0.785,81.9,0,109.5,13.59,-1.23,79.2
"2009-01-15 00:04:00",541806,4.748,119.8,6.109,1.111,2.451,99.49501,-1.987,-0.82,81.9,0,109.5,13.59,-1.24,81.8
"2009-01-15 00:04:30",541807,4.634,114.8,5.879,1.182,1.835,99.49105,-1.997,-0.919,81.8,0,109.5,13.59,-1.25,76.8
"2009-01-15 00:05:00",541808,4.79,117.4,5.987,1.159,2.524,99.49048,-1.998,-0.846,81.9,0,109.5,13.59,-1.25,79.4
"2009-01-15 00:05:30",541809,4.558,121.9,6.815,1.161,2.302,99.49048,-1.998,-0.86,82,0,109.5,13.6,-1.25,83.9
"2009-01-15 00:06:00",541810,4.894,129.9,5.099,0.979,2.66,99.49076,-1.998,-0.872,82,0,109.5,13.6,-1.25,91.9
"2009-01-15 00:06:30",541811,4.52,124.4,6.34,1.188,2.405,99.49105,-1.997,-0.839,82.1,0,109.5,13.6,-1.25,86.4
"2009-01-15 00:07:00",541812,4.792,128.1,6.752,1.15,2.426,99.49358,-1.99,-0.845,82.1,0,109.5,13.6,-1.25,90.1
"2009-01-15 00:07:30",541813,4.279,127.9,6.404,1.201,0.923,99.49471,-1.988,-1.013,82,0,109.5,13.6,-1.24,89.9
"2009-01-15 00:08:00",541814,4.541,128.9,5.68,1.186,2.66,99.49356,-1.99,-0.849,82.3,0,109.5,13.6,-1.25,90.9
"2009-01-15 00:08:30",541815,4.376,119.1,6.746,1.193,2.672,99.48648,-2.008,-0.857,82.4,0,109.5,13.6,-1.26,81.1
"2009-01-15 00:09:00",541816,3.711,112.4,8.4,1.181,1.813,99.48136,-2.022,-0.839,82.6,0,109.5,13.6,-1.28,74.4
"2009-01-15 00:09:30",541817,4.071,119.5,6.793,1.124,2.277,99.46975,-2.051,-0.867,82.6,0,109.5,13.6,-1.31,81.5
"2009-01-15 00:10:00",541818,4.52,121.4,5.142,0.956,2.677,99.47229,-2.045,-0.949,82.6,0,109.5,13.6,-1.30,83.4
"2009-01-15 00:10:30",541819,3.629,120.7,6.628,1.195,0.628,99.47229,-2.045,-1.036,82.5,0,109.5,13.6,-1.30,82.7
"2009-01-15 00:11:00",541820,4.196,123.9,6.523,1.155,2.408,99.47314,-2.042,-0.876,82.7,0,109.5,13.6,-1.30,85.9
"2009-01-15 00:11:30",541821,4.154,126,6.388,1.177,2.127,99.47341,-2.042,-0.926,82.6,0,109.5,13.6,-1.30,88.0
"2009-01-15 00:12:00",541822,3.417,124.1,5.775,1.111,1.015,99.47341,-2.042,-0.967,82.6,0,109.5,13.6,-1.30,86.1
"2009-01-15 00:12:30",541823,4.811,126.3,6.218,1.074,2.691,99.4737,-2.041,-0.89,82.5,0,109.5,13.6,-1.30,88.3
"2009-01-15 00:13:00",541824,5.029,129.5,6.408,1.045,2.502,99.47453,-2.039,-1.006,82.1,0,109.5,13.6,-1.29,91.5
"2009-01-15 00:13:30",541825,5.186,134.4,3.732,0.741,3.593,99.47198,-2.045,-0.861,82.2,0,109.5,13.6,-1.30,96.4
"2009-01-15 00:14:00",541826,4.648,125.3,5.41,1.17,2.876,99.47027,-2.05,-0.939,82.1,0,109.4,13.6,-1.30,87.3
"2009-01-15 00:14:30",541827,4.23,121,6.12,1.2,2.053,99.46886,-2.053,-0.911,82.1,0,109.5,13.6,-1.31,83.0
"2009-01-15 00:15:00",541828,3.863,115.2,5.972,1.131,0.864,99.47083,-2.048,-1.061,81.9,0,109.4,13.6,-1.30,77.2
"2009-01-15 00:15:30",541829,4.604,119.8,6.261,1.098,2.505,99.4677,-2.056,-0.906,81.9,0,109.4,13.6,-1.31,81.8
"2009-01-15 00:16:00",541830,4.131,111.1,7.194,1.192,0.904,99.46544,-2.062,-1.09,81.6,0,109.5,13.6,-1.32,73.1
"2009-01-15 00:16:30",541831,4.758,111.8,5.964,1.122,3.054,99.46516,-2.063,-0.906,81.8,0,109.4,13.6,-1.32,73.8
"2009-01-15 00:17:00",541832,4.404,113.8,5.017,1.077,3.066,99.46374,-2.066,-0.905,81.7,0,109.5,13.6,-1.32,75.8
"2009-01-15 00:17:30",541833,3.8,109.3,7.087,1.161,1.454,99.46146,-2.072,-0.911,81.7,0,109.5,13.61,-1.33,71.3
"2009-01-15 00:18:00",541834,4.002,112.2,7.573,1.165,1.519,99.45183,-2.097,-1.035,81.7,0,109.4,13.61,-1.35,74.2
"2009-01-15 00:18:30",541835,3.951,116.6,6.477,1.16,1.54,99.45351,-2.092,-1.017,81.8,0,109.4,13.61,-1.35,78.6
"2009-01-15 00:19:00",541836,3.025,112.5,5.457,1.083,0.401,99.45351,-2.092,-1.042,81.8,0,109.4,13.61,-1.35,74.5
"2009-01-15 00:19:30",541837,4.319,115.9,6.039,1.16,2.135,99.45408,-2.091,-0.926,81.9,0,109.4,13.61,-1.35,77.9
"2009-01-15 00:20:00",541838,4.581,117.7,5.842,0.948,2.733,99.45464,-2.09,-0.983,81.8,0,109.5,13.61,-1.34,79.7
"2009-01-15 00:20:30",541839,4.452,116.3,7.767,1.196,1.762,99.45577,-2.087,-0.971,81.8,0,109.4,13.61,-1.34,78.3
"2009-01-15 00:21:00",541840,4.548,116.8,7.668,1.15,2.338,99.45633,-2.085,-1.028,81.8,0,109.4,13.62,-1.34,78.8
"2009-01-15 00:21:30",541841,3.615,108.4,4.466,1.122,0.78,99.45633,-2.085,-1.038,81.8,0,109.5,13.62,-1.34,70.4
"2009-01-15 00:22:00",541842,4.08,115.6,6.663,1.246,1.734,99.45605,-2.086,-0.918,82,0,109.4,13.62,-1.34,77.6
"2009-01-15 00:22:30",541843,4.878,116.8,5.468,1.121,2.723,99.45633,-2.085,-0.962,82,0,109.5,13.62,-1.34,78.8
"2009-01-15 00:23:00",541844,4.915,113.3,6.536,1.141,2.578,99.45605,-2.086,-0.966,81.8,0,109.4,13.62,-1.34,75.3
"2009-01-15 00:23:30",541845,4.831,112.7,6.232,1.167,2.715,99.45633,-2.085,-0.963,81.7,0,109.4,13.62,-1.34,74.7
"2009-01-15 00:24:00",541846,4.505,107.5,7.031,1.102,2.486,99.45633,-2.085,-0.963,81.6,0,109.5,13.62,-1.34,69.5
"2009-01-15 00:24:30",541847,4.661,106.3,6.551,1.119,2.12,99.45605,-2.086,-1.064,81.5,0,109.4,13.62,-1.34,68.3
"2009-01-15 00:25:00",541848,4.62,108.1,7.006,1.18,2.46,99.45492,-2.089,-0.962,81.8,0,109.4,13.62,-1.34,70.1
"2009-01-15 00:25:30",541849,4.828,112.3,4.688,0.983,2.643,99.44869,-2.105,-0.991,81.6,0,109.4,13.62,-1.36,74.3
"2009-01-15 00:26:00",541850,4.163,107.5,6.541,1.232,1.539,99.44954,-2.103,-0.992,81.3,0,109.4,13.62,-1.36,69.5
"2009-01-15 00:26:30",541851,4.164,110,6.492,1.225,1.901,99.44869,-2.105,-1.038,81.4,0,109.4,13.62,-1.36,72.0
"2009-01-15 00:27:00",541852,4.308,106.2,5.257,1.146,2.217,99.44756,-2.108,-0.996,81.3,0,109.4,13.62,-1.36,68.2
"2009-01-15 00:27:30",541853,3.362,104.1,5.464,1.034,0.597,99.44699,-2.109,-1.139,81.3,0,109.4,13.62,-1.36,66.1
"2009-01-15 00:28:00",541854,4.42,105.5,6.656,1.079,2.562,99.44416,-2.116,-0.987,81.6,0,109.4,13.62,-1.37,67.5
"2009-01-15 00:28:30",541855,4.336,106,6.601,1.163,2.385,99.44104,-2.124,-0.975,81.6,0,109.4,13.62,-1.38,68.0
"2009-01-15 00:29:00",541856,4.158,106.2,5.817,1.191,2.471,99.43934,-2.129,-0.959,81.7,0,109.4,13.62,-1.38,68.2
"2009-01-15 00:29:30",541857,4.504,101.1,5.728,1.153,2.639,99.43906,-2.129,-0.992,81.7,0,109.4,13.62,-1.38,63.1
"2009-01-15 00:30:00",541858,3.47,99.7,5.537,1.029,1.33,99.4399,-2.127,-0.981,81.9,0,109.4,13.62,-1.38,61.7
"2009-01-15 00:30:30",541859,4.443,106.3,5.247,1.039,2.434,99.44075,-2.125,-1.007,81.8,0,109.4,13.62,-1.38,68.3
"2009-01-15 00:31:00",541860,4.533,104.5,6.359,1.119,2.316,99.4413,-2.124,-1.033,81.8,0,109.4,13.62,-1.38,66.5
"2009-01-15 00:31:30",541861,3.958,104.4,5.495,1.237,2.008,99.43591,-2.137,-0.974,81.8,0,109.4,13.62,-1.39,66.4
"2009-01-15 00:32:00",541862,4.391,102.3,6.242,1.108,2.281,99.43053,-2.151,-1.055,81.6,0,109.4,13.62,-1.41,64.3
"2009-01-15 00:32:30",541863,4.121,102.6,6.165,1.183,1.959,99.43221,-2.147,-1.03,81.6,0,109.4,13.62,-1.40,64.6
"2009-01-15 00:33:00",541864,4.122,106.5,5.761,1.226,1.711,99.43137,-2.149,-1.041,81.5,0,109.4,13.62,-1.40,68.5
"2009-01-15 00:33:30",541865,4.803,109.9,5.729,1.148,2.332,99.43221,-2.147,-1.011,81.4,0,109.4,13.62,-1.40,71.9
"2009-01-15 00:34:00",541866,4.532,108.6,6.805,1.216,1.887,99.43418,-2.142,-0.996,81.4,0,109.4,13.63,-1.40,70.6
"2009-01-15 00:34:30",541867,4.778,114,5.152,1.151,2.178,99.43474,-2.14,-0.95,81.3,0,109.4,13.63,-1.40,76.0
"2009-01-15 00:35:00",541868,4.932,118.4,5.434,1.104,2.257,99.437,-2.135,-1.004,81.2,0,109.4,13.63,-1.39,80.4
"2009-01-15 00:35:30",541869,4.529,116.2,5.333,1.127,1.339,99.43643,-2.136,-1.08,81,0,109.4,13.63,-1.39,78.2
"2009-01-15 00:36:00",541870,4.165,113.9,6.868,1.216,1.212,99.43671,-2.135,-1.162,80.9,0,109.4,13.63,-1.39,75.9
"2009-01-15 00:36:30",541871,4.504,116.2,4.868,1.152,2.661,99.43669,-2.135,-1.021,81.2,0,109.4,13.63,-1.39,78.2
"2009-01-15 00:37:00",541872,4.411,117.7,6.057,1.113,2.354,99.43245,-2.146,-1.029,81.2,0,109.4,13.63,-1.40,79.7
"2009-01-15 00:37:30",541873,4.731,123.6,5.473,0.985,2.645,99.42933,-2.154,-1.038,81.1,0,109.4,13.63,-1.41,85.6
"2009-01-15 00:38:00",541874,4.445,119.3,6.727,1.097,2.216,99.42707,-2.16,-1.09,81,0,109.4,13.63,-1.42,81.3
"2009-01-15 00:38:30",541875,2.849,111.7,4.71,0.465,-0.221,99.42678,-2.161,-1.06,80.9,0,109.4,13.67,-1.42,73.7
"2009-01-15 00:39:00",541876,4.295,123.1,6.522,1.12,2.283,99.42423,-2.167,-1.027,80.9,0,109.4,13.63,-1.42,85.1
"2009-01-15 00:39:30",541877,4.3,120.3,7.016,1.198,2.846,99.4231,-2.17,-1.027,81,0,109.4,13.63,-1.43,82.3
"2009-01-15 00:40:00",541878,5.191,127.4,4.508,0.726,2.88,99.4231,-2.17,-1.109,80.9,0,109.4,13.63,-1.43,89.4
"2009-01-15 00:40:30",541879,4.56,126.3,6.746,1.165,1.967,99.42338,-2.169,-1.077,80.9,0,109.4,13.63,-1.42,88.3
"2009-01-15 00:41:00",541880,4.675,126.4,7.021,1.097,2.516,99.42367,-2.169,-1.027,81,0,109.4,13.63,-1.42,88.4
"2009-01-15 00:41:30",541881,3.9,121.4,6.326,1.156,1.241,99.42338,-2.169,-1.135,81,0,109.4,13.63,-1.42,83.4
"2009-01-15 00:42:00",541882,4.112,123,5.262,1.126,2.373,99.42479,-2.166,-1.018,81.1,0,109.4,13.63,-1.42,85.0
"2009-01-15 00:42:30",541883,4.74,127.9,4.815,1.034,2.733,99.42761,-2.158,-1.051,81.1,0,109.4,13.64,-1.41,89.9
"2009-01-15 00:43:00",541884,4.304,125.7,5.606,1.141,1.888,99.42874,-2.156,-1.002,81.2,0,109.4,13.63,-1.41,87.7
"2009-01-15 00:43:30",541885,4.435,125.5,7.362,1.142,1.932,99.42959,-2.153,-1.064,81.1,0,109.4,13.64,-1.41,87.5
"2009-01-15 00:44:00",541886,4.139,121.4,7.957,1.259,1.796,99.4358,-2.138,-1.064,81.2,0,109.4,13.64,-1.39,83.4
"2009-01-15 00:44:30",541887,3.959,117.2,5.765,1.135,2.019,99.43269,-2.146,-1.111,81.1,0,109.4,13.64,-1.40,79.2
"2009-01-15 00:45:00",541888,4.364,118.2,4.649,1.073,2.7,99.4307,-2.151,-1.053,81.2,0,109.4,13.63,-1.41,80.2
"2009-01-15 00:45:30",541889,4.074,117.4,6.796,1.224,1.573,99.42957,-2.153,-1.034,81.3,0,109.4,13.63,-1.41,79.4
"2009-01-15 00:46:00",541890,4.539,116.7,6.953,1.114,2.162,99.42504,-2.165,-1.025,81.4,0,109.4,13.63,-1.42,78.7
"2009-01-15 00:46:30",541891,4.624,118.2,6.448,1.198,2.319,99.41853,-2.182,-1.074,81.5,0,109.4,13.63,-1.44,80.2
"2009-01-15 00:47:00",541892,4.909,114.3,6.655,1.058,2.879,99.41428,-2.192,-1.069,81.6,0,109.4,13.63,-1.45,76.3
"2009-01-15 00:47:30",541893,5.209,119.8,7.634,1.014,2.794,99.41399,-2.193,-1.082,81.6,0,109.4,13.63,-1.45,81.8
"2009-01-15 00:48:00",541894,4.748,116.5,7.61,1.133,2.204,99.41512,-2.19,-1.035,81.7,0,109.4,13.63,-1.45,78.5
"2009-01-15 00:48:30",541895,5.066,116.1,7.483,1.234,2.165,99.41399,-2.193,-1.09,81.8,0,109.4,13.63,-1.45,78.1
"2009-01-15 00:49:00",541896,5.63,119.6,5.457,0.965,2.718,99.41455,-2.192,-1.065,81.8,0,109.4,13.63,-1.45,81.6
"2009-01-15 00:49:30",541897,5.164,120.6,7.161,1.063,2.521,99.41115,-2.2,-1.058,81.9,0,109.4,13.63,-1.46,82.6
"2009-01-15 00:50:00",541898,5.392,118.4,5.28,0.976,2.715,99.40662,-2.212,-1.19,81.8,0,109.4,13.63,-1.47,80.4
"2009-01-15 00:50:30",541899,5.116,114.5,6.216,1.148,2.853,99.3967,-2.237,-1.115,81.9,0,109.4,13.64,-1.49,76.5
"2009-01-15 00:51:00",541900,4.993,115.5,6.658,1.119,1.792,99.3879,-2.26,-1.12,82,0,109.4,13.64,-1.52,77.5
"2009-01-15 00:51:30",541901,5.398,121.1,6.096,1.05,2.503,99.38508,-2.267,-1.051,82.1,0,109.4,13.64,-1.52,83.1
"2009-01-15 00:52:00",541902,5.401,121.2,5.766,1.078,2.104,99.38254,-2.273,-1.095,82.2,0,109.4,13.64,-1.53,83.2
"2009-01-15 00:52:30",541903,5.755,124.6,5.666,1.107,2.249,99.38338,-2.271,-1.09,82.3,0,109.4,13.64,-1.53,86.6
"2009-01-15 00:53:00",541904,6.044,125.8,5.975,0.913,2.731,99.38535,-2.266,-1.134,82.3,0,109.4,13.64,-1.52,87.8
"2009-01-15 00:53:30",541905,6.035,124.4,5.028,0.951,3.034,99.38479,-2.268,-1.133,82.4,0,109.4,13.64,-1.52,86.4
"2009-01-15 00:54:00",541906,5.681,123.4,6.723,1.142,2.302,99.38619,-2.264,-1.139,82.4,0,109.4,13.64,-1.52,85.4
"2009-01-15 00:54:30",541907,5.702,124.1,6.752,1.025,2.597,99.38789,-2.26,-1.136,82.4,0,109.4,13.64,-1.52,86.1
"2009-01-15 00:55:00",541908,5.982,124.8,5.051,0.978,3.044,99.3876,-2.26,-1.095,82.5,0,109.4,13.64,-1.52,86.8
"2009-01-15 00:55:30",541909,5.994,125.3,6.795,1.086,2.745,99.38421,-2.269,-1.163,82.5,0,109.4,13.64,-1.53,87.3
"2009-01-15 00:56:00",541910,5.757,123.8,7.745,1.151,2.871,99.37854,-2.284,-1.173,82.6,0,109.4,13.64,-1.54,85.8
"2009-01-15 00:56:30",541911,5.578,127.2,6.792,0.992,2.19,99.37656,-2.289,-1.212,82.6,0,109.4,13.64,-1.54,89.2
"2009-01-15 00:57:00",541912,6.148,127.3,6.318,1.101,2.843,99.37231,-2.299,-1.111,82.7,0,109.4,13.64,-1.56,89.3
"2009-01-15 00:57:30",541913,6.293,125.5,6.157,1.037,2.79,99.36948,-2.307,-1.152,82.7,0,109.4,13.64,-1.56,87.5
"2009-01-15 00:58:00",541914,6.759,128.5,3.57,0.628,3.595,99.37004,-2.305,-1.103,82.7,0,109.4,13.64,-1.56,90.5
"2009-01-15 00:58:30",541915,6.365,127,4.48,1.049,2.942,99.36976,-2.306,-1.183,82.7,0,109.4,13.64,-1.56,89.0
"2009-01-15 00:59:00",541916,6.265,124.1,5.474,1.134,2.617,99.37032,-2.304,-1.152,82.7,0,109.4,13.64,-1.56,86.1
"2009-01-15 00:59:30",541917,5.827,122,5.445,1.135,2.823,99.3689,-2.308,-1.142,82.8,0,109.4,13.64,-1.56,84.0
"2009-01-15 01:00:00",541918,6.026,124.3,5.631,1.067,2.526,99.36381,-2.321,-1.193,82.8,0,109.4,13.64,-1.58,86.3
"2009-01-15 01:00:30",541919,6.093,123.6,5.669,1.002,2.753,99.35957,-2.332,-1.198,82.8,0,109.4,13.64,-1.59,85.6
"2009-01-15 01:01:00",541920,6.016,121.1,7.425,1.159,1.653,99.35503,-2.343,-1.2,82.9,0,109.4,13.64,-1.60,83.1
"2009-01-15 01:01:30",541921,6.955,127.4,5.04,0.871,3.281,99.35417,-2.346,-1.149,82.9,0,109.4,13.64,-1.60,89.4
"2009-01-15 01:02:00",541922,6.84,128.4,5.197,0.889,3.388,99.35417,-2.346,-1.153,82.8,0,109.4,13.64,-1.60,90.4
"2009-01-15 01:02:30",541923,7.132,130,3.891,0.755,3.592,99.35417,-2.346,-1.126,82.8,0,109.4,13.64,-1.60,92.0
"2009-01-15 01:03:00",541924,7.275,132.2,2.642,0.654,3.451,99.35417,-2.346,-1.135,82.7,0,109.4,13.63,-1.60,94.2
"2009-01-15 01:03:30",541925,7.557,131.7,4.2,0.548,3.604,99.35417,-2.346,-1.128,82.6,0,109.4,13.63,-1.60,93.7
"2009-01-15 01:04:00",541926,7.515,131,3.747,0.64,3.433,99.35417,-2.346,-1.112,82.6,0,109.4,13.63,-1.60,93.0
"2009-01-15 01:04:30",541927,7.34,130.3,3.537,0.712,3.377,99.35417,-2.346,-1.134,82.5,0,109.4,13.63,-1.60,92.3
"2009-01-15 01:05:00",541928,7.507,132.8,3.958,0.694,3.226,99.35417,-2.346,-1.143,82.6,0,109.4,13.63,-1.60,94.8
"2009-01-15 01:05:30",541929,7.583,132.6,4.485,0.632,3.131,99.35417,-2.346,-1.135,82.6,0,109.4,13.63,-1.60,94.6
"2009-01-15 01:06:00",541930,7.805,135.1,3.764,0.502,3.459,99.35417,-2.346,-1.131,82.6,0,109.4,13.63,-1.60,97.1
"2009-01-15 01:06:30",541931,7.667,135.5,3.836,0.551,3.322,99.35417,-2.346,-1.127,82.5,0,109.4,13.64,-1.60,97.5
"2009-01-15 01:07:00",541932,7.54,136,3.699,0.653,3.356,99.35417,-2.346,-1.15,82.4,0,109.4,13.64,-1.60,98.0
"2009-01-15 01:07:30",541933,7.4,135.6,4.151,0.551,3.319,99.35417,-2.346,-1.148,82.3,0,109.4,13.64,-1.60,97.6
"2009-01-15 01:08:00",541934,7.574,134.3,3.944,0.527,3.404,99.35417,-2.346,-1.144,82.3,0,109.4,13.64,-1.60,96.3
"2009-01-15 01:08:30",541935,7.119,133,4.577,0.604,3.405,99.35417,-2.346,-1.138,82.3,0,109.4,13.64,-1.60,95.0
"2009-01-15 01:09:00",541936,7.289,134.4,3.91,0.652,3.259,99.35417,-2.346,-1.13,82.3,0,109.4,13.64,-1.60,96.4
"2009-01-15 01:09:30",541937,7.619,136.7,3.829,0.652,3.375,99.35417,-2.346,-1.125,82.3,0,109.4,13.64,-1.60,98.7
"2009-01-15 01:10:00",541938,7.626,136.1,3.674,0.502,3.631,99.35417,-2.346,-1.151,82.3,0,109.4,13.64,-1.60,98.1
"2009-01-15 01:10:30",541939,7.434,134.9,3.579,0.64,3.537,99.35417,-2.346,-1.146,82.3,0,109.4,13.64,-1.60,96.9
"2009-01-15 01:11:00",541940,7.26,135.2,3.716,0.724,3.379,99.35417,-2.346,-1.131,82.2,0,109.4,13.64,-1.60,97.2
"2009-01-15 01:11:30",541941,7.419,136.7,4.379,0.625,3.344,99.35417,-2.346,-1.124,82.3,0,109.4,13.64,-1.60,98.7
"2009-01-15 01:12:00",541942,7.358,140.3,3.804,0.428,3.45,99.35474,-2.344,-1.127,82.3,0,109.4,13.64,-1.60,102.3
"2009-01-15 01:12:30",541943,7.453,139.3,3.8,0.576,3.186,99.35984,-2.331,-1.092,82.4,0,109.4,13.64,-1.59,101.3
"2009-01-15 01:13:00",541944,7.47,138.5,3.69,0.583,3.178,99.3641,-2.32,-1.113,82.3,0,109.4,13.64,-1.58,100.5
"2009-01-15 01:13:30",541945,7.628,138.6,4.008,0.578,3.421,99.36437,-2.32,-1.109,82.3,0,109.4,13.64,-1.58,100.6
"2009-01-15 01:14:00",541946,7.721,139.8,3.672,0.508,3.321,99.3672,-2.312,-1.107,82.3,0,109.3,13.64,-1.57,101.8
"2009-01-15 01:14:30",541947,7.576,140.1,4.567,0.704,3.561,99.36749,-2.312,-1.083,82.3,0,109.4,13.64,-1.57,102.1
"2009-01-15 01:15:00",541948,7.298,136.7,4.702,0.588,3.483,99.35871,-2.334,-1.104,82.3,0,109.4,13.64,-1.59,98.7
"2009-01-15 01:15:30",541949,7.822,140,4.332,0.559,3.801,99.35417,-2.346,-1.101,82.3,0,109.4,13.64,-1.60,102.0
"2009-01-15 01:16:00",541950,8.01,139.3,3.14,0.607,3.683,99.35417,-2.346,-1.092,82.4,0,109.3,13.64,-1.60,101.3
"2009-01-15 01:16:30",541951,8.07,137.7,3.721,0.569,3.503,99.35417,-2.346,-1.119,82.4,0,109.4,13.64,-1.60,99.7
"2009-01-15 01:17:00",541952,8.15,138,3.819,0.582,3.507,99.35417,-2.346,-1.12,82.4,0,109.4,13.64,-1.60,100.0
"2009-01-15 01:17:30",541953,8.12,137.2,4.278,0.67,3.598,99.35417,-2.346,-1.117,82.4,0,109.4,13.64,-1.60,99.2
"2009-01-15 01:18:00",541954,8.27,136.8,3.614,0.504,3.869,99.35417,-2.346,-1.106,82.4,0,109.4,13.64,-1.60,98.8
"2009-01-15 01:18:30",541955,8.29,134.5,4.175,0.659,3.876,99.35417,-2.346,-1.106,82.5,0,109.4,13.63,-1.60,96.5
"2009-01-15 01:19:00",541956,8.28,132.2,4.281,0.662,3.815,99.35417,-2.346,-1.117,82.5,0,109.4,13.63,-1.60,94.2
"2009-01-15 01:19:30",541957,8.09,132.5,4.36,0.654,3.946,99.35417,-2.346,-1.114,82.5,0,109.4,13.63,-1.60,94.5
"2009-01-15 01:20:00",541958,8.2,133.2,3.782,0.596,3.841,99.35389,-2.346,-1.092,82.6,0,109.3,13.63,-1.60,95.2
"2009-01-15 01:20:30",541959,8.08,132.5,3.883,0.638,3.651,99.35219,-2.351,-1.116,82.6,0,109.4,13.63,-1.61,94.5
"2009-01-15 01:21:00",541960,8.13,131.7,3.917,0.53,3.594,99.34653,-2.365,-1.122,82.6,0,109.4,13.63,-1.62,93.7
"2009-01-15 01:21:30",541961,7.999,131.3,4.618,0.541,3.729,99.33831,-2.386,-1.127,82.6,0,109.4,13.63,-1.64,93.3
"2009-01-15 01:22:00",541962,8.13,130.6,4.787,0.51,3.479,99.33577,-2.393,-1.14,82.6,0,109.3,13.64,-1.65,92.6
"2009-01-15 01:22:30",541963,8.12,131.1,4.382,0.545,3.546,99.3301,-2.407,-1.135,82.7,0,109.4,13.64,-1.66,93.1
"2009-01-15 01:23:00",541964,8.01,132.4,4.318,0.567,3.487,99.32246,-2.426,-1.157,82.7,0,109.4,13.64,-1.68,94.4
"2009-01-15 01:23:30",541965,8.12,133.6,4.234,0.573,3.568,99.32019,-2.432,-1.162,82.7,0,109.4,13.64,-1.69,95.6
"2009-01-15 01:24:00",541966,8.27,133.6,3.752,0.507,3.538,99.32019,-2.432,-1.16,82.7,0,109.4,13.64,-1.69,95.6
"2009-01-15 01:24:30",541967,7.937,132.3,4.772,0.577,3.474,99.32019,-2.432,-1.164,82.8,0,109.4,13.64,-1.69,94.3
"2009-01-15 01:25:00",541968,7.837,131.2,5.186,0.672,3.443,99.32019,-2.432,-1.169,82.9,0,109.4,13.64,-1.69,93.2
"2009-01-15 01:25:30",541969,7.233,130.4,5.168,0.574,3.306,99.32019,-2.432,-1.178,83,0,109.4,13.64,-1.69,92.4
"2009-01-15 01:26:00",541970,7.662,134.4,3.905,0.403,3.422,99.32019,-2.432,-1.201,83.1,0,109.4,13.64,-1.69,96.4
"2009-01-15 01:26:30",541971,7.588,135.3,4.789,0.605,3.302,99.31651,-2.442,-1.182,83.1,0,109.4,13.64,-1.70,97.3
"2009-01-15 01:27:00",541972,7.699,135.6,4.092,0.553,3.516,99.30744,-2.465,-1.203,83.2,0,109.4,13.64,-1.72,97.6
"2009-01-15 01:27:30",541973,7.71,136.6,3.913,0.722,3.632,99.30347,-2.475,-1.219,83.1,0,109.4,13.64,-1.73,98.6
"2009-01-15 01:28:00",541974,8.01,138.1,3.799,0.36,3.427,99.30375,-2.474,-1.232,83.1,0,109.3,13.64,-1.73,100.1
"2009-01-15 01:28:30",541975,7.986,137.8,3.7,0.531,3.519,99.30347,-2.475,-1.212,83.2,0,109.4,13.64,-1.73,99.8
"2009-01-15 01:29:00",541976,7.982,139.4,4.208,0.533,3.68,99.30375,-2.474,-1.236,83.2,0,109.4,13.64,-1.73,101.4
"2009-01-15 01:29:30",541977,8.13,141.5,4.119,0.547,3.908,99.30431,-2.473,-1.236,83.3,0,109.4,13.64,-1.73,103.5
"2009-01-15 01:30:00",541978,8.12,141.3,3.189,0.609,3.872,99.30489,-2.471,-1.221,83.5,0,109.4,13.64,-1.73,103.3
"2009-01-15 01:30:30",541979,8.14,141,3.763,0.639,3.97,99.30602,-2.468,-1.225,83.5,0,109.4,13.64,-1.72,103.0
"2009-01-15 01:31:00",541980,8.24,142.6,3.785,0.561,4.044,99.3097,-2.459,-1.241,83.5,0,109.4,13.64,-1.72,104.6
"2009-01-15 01:31:30",541981,8.22,142.9,4.098,0.523,4.39,99.31706,-2.44,-1.226,83.6,0,109.4,13.64,-1.70,104.9
"2009-01-15 01:32:00",541982,8.21,144.3,1.913,0.697,3.911,99.32103,-2.43,-1.209,83.7,0,109.4,13.64,-1.69,106.3
"2009-01-15 01:32:30",541983,8.25,143.1,4.06,0.638,4.23,99.32103,-2.43,-1.208,83.7,0,109.4,13.64,-1.69,105.1
"2009-01-15 01:33:00",541984,8.37,144.6,4.207,0.525,4.187,99.32131,-2.429,-1.209,83.7,0,109.4,13.64,-1.69,106.6
"2009-01-15 01:33:30",541985,8.42,142.1,4.153,0.618,4.229,99.32328,-2.424,-1.208,83.7,0,109.4,13.64,-1.68,104.1
"2009-01-15 01:34:00",541986,8.57,142.8,3.767,0.507,4.085,99.32215,-2.427,-1.217,83.6,0,109.4,13.64,-1.68,104.8
"2009-01-15 01:34:30",541987,8.56,143,3.745,0.636,4.032,99.32243,-2.427,-1.198,83.5,0,109.4,13.64,-1.68,105.0
"2009-01-15 01:35:00",541988,8.68,142,3.703,0.523,4.134,99.31847,-2.437,-1.207,83.5,0,109.4,13.64,-1.69,104.0
"2009-01-15 01:35:30",541989,8.81,142.3,4.204,0.623,4.457,99.31733,-2.439,-1.207,83.6,0,109.4,13.64,-1.70,104.3
"2009-01-15 01:36:00",541990,8.97,142,3.247,0.61,4.322,99.31676,-2.441,-1.204,83.6,0,109.3,13.64,-1.70,104.0
"2009-01-15 01:36:30",541991,8.8,143,3.338,0.727,4.383,99.30827,-2.463,-1.186,83.5,0,109.4,13.64,-1.72,105.0
"2009-01-15 01:37:00",541992,8.93,142.4,4.187,0.415,4.51,99.3063,-2.468,-1.233,83.5,0,109.4,13.64,-1.72,104.4
"2009-01-15 01:37:30",541993,8.75,141.4,4.091,0.542,4.554,99.30713,-2.465,-1.223,83.6,0,109.4,13.64,-1.72,103.4
"2009-01-15 01:38:00",541994,8.69,141,3.281,0.614,4.412,99.3074,-2.465,-1.215,83.5,0,109.4,13.64,-1.72,103.0
"2009-01-15 01:38:30",541995,8.74,140,3.846,0.642,4.422,99.30712,-2.466,-1.217,83.5,0,109.4,13.64,-1.72,102.0
"2009-01-15 01:39:00",541996,8.93,138.5,4.278,0.537,4.392,99.30429,-2.473,-1.219,83.5,0,109.4,13.64,-1.73,100.5
"2009-01-15 01:39:30",541997,8.93,136.2,3.754,0.636,4.501,99.2958,-2.494,-1.21,83.6,0,109.4,13.64,-1.75,98.2
"2009-01-15 01:40:00",541998,8.99,137.1,3.573,0.507,4.37,99.29578,-2.494,-1.225,83.5,0,109.4,13.64,-1.75,99.1
"2009-01-15 01:40:30",541999,8.84,138.9,3.838,0.528,4.122,99.2938,-2.499,-1.243,83.5,0,109.4,13.65,-1.76,100.9
"2009-01-15 01:41:00",542000,8.96,140,3.724,0.641,4.181,99.29436,-2.498,-1.223,83.6,0,109.4,13.65,-1.75,102.0
"2009-01-15 01:41:30",542001,8.85,141.7,3.73,0.636,4.548,99.29408,-2.499,-1.217,83.7,0,109.4,13.65,-1.76,103.7
"2009-01-15 01:42:00",542002,8.81,143,3.655,0.494,4.542,99.30143,-2.48,-1.244,83.8,0,109.3,13.65,-1.74,105.0
"2009-01-15 01:42:30",542003,8.42,142.3,3.701,0.646,4.382,99.30766,-2.464,-1.21,83.9,0,109.4,13.65,-1.72,104.3
"2009-01-15 01:43:00",542004,8.2,141.5,3.372,0.662,4.292,99.31472,-2.446,-1.226,83.9,0,109.4,13.65,-1.70,103.5
"2009-01-15 01:43:30",542005,8.17,142.1,4.127,0.534,4.563,99.31388,-2.448,-1.223,83.9,0,109.4,13.65,-1.70,104.1
"2009-01-15 01:44:00",542006,8.38,144.2,3.62,0.502,4.483,99.31388,-2.448,-1.221,83.9,0,109.3,13.65,-1.70,106.2
"2009-01-15 01:44:30",542007,8.28,145.9,3.852,0.64,4.246,99.31445,-2.447,-1.205,83.9,0,109.4,13.65,-1.70,107.9
"2009-01-15 01:45:00",542008,8.35,147.5,4.173,0.64,4.548,99.31474,-2.446,-1.219,83.8,0,109.4,13.65,-1.70,109.5
"2009-01-15 01:45:30",542009,8.51,148,3.705,0.644,4.534,99.3153,-2.445,-1.222,83.5,0,109.4,13.65,-1.70,110.0
"2009-01-15 01:46:00",542010,8.8,147.6,3.275,0.618,4.423,99.32153,-2.429,-1.224,83.1,0,109.4,13.65,-1.69,109.6
"2009-01-15 01:46:30",542011,8.68,144.6,3.217,0.618,4.57,99.33058,-2.406,-1.204,82.8,0,109.4,13.65,-1.66,106.6
"2009-01-15 01:47:00",542012,8.39,144.2,4.776,0.555,4.868,99.33257,-2.401,-1.207,82.5,0,109.4,13.65,-1.66,106.2
"2009-01-15 01:47:30",542013,8.38,144.5,4.082,0.701,4.681,99.34361,-2.373,-1.19,82.3,0,109.4,13.65,-1.63,106.5